Hourly Data Report for February 05, 2021

OTTAWA INTL A
ONTARIO
Current Station Operator: NAVCAN

45°19'00.000" N
75°40'00.000" W
114.90 m
6106001
71628
YOW

Download Data

Hourly Data (February 2021)
Hourly Data Report for February 5, 2021
TIME
LST
Temp Definition
°C
Dew Point Definition
°C
Rel Hum Definition
%
Precip. Amount Definition
mm

Wind Dir Definition
10's deg

Wind Spd Definition
km/h
Visibility Definition
km
Stn Press Definition
kPa
Hmdx Definition


Wind Chill Definition


Weather Definition


00:00 -6.5 -8.9 84   10 9 24.1 99.27   -11 LegendNANA
01:00 -8.6 -10.0 90   10 8 24.1 99.23   -13 Mainly Clear
02:00 -9.4 -10.6 91   8 9 24.1 99.16   -14 LegendNANA
03:00 -8.0 -9.4 90   7 15 24.1 99.00   -14 LegendNANA
04:00 -7.5 -8.8 90   8 13 24.1 98.88   -13 Cloudy
05:00 -7.2 -8.7 89   8 18 24.1 98.70   -14 LegendNANA
06:00 -6.2 -8.3 85   8 22 24.1 98.57   -13 LegendNANA
07:00 -5.2 -7.9 81   8 23 24.1 98.43   -12 Mostly Cloudy
08:00 -5.0 -6.5 89   8 19 3.2 98.33   -11 Snow
09:00 -3.9 -4.8 93   9 19 9.7 98.27   -10 Snow
10:00 -3.4 -4.2 94   9 18 3.2 98.21   -9 Snow
11:00 -2.3 -3.2 93   11 19 16.1 98.19   -8 Snow
12:00 1.8 -0.5 85   20 27 24.1 98.17     LegendNANA
13:00 1.2 -3.2 72   22 28 24.1 98.22     Cloudy
14:00 0.6 -4.3 69   21 31 24.1 98.29     LegendNANA
15:00 -0.3 -4.9 71   21 34 24.1 98.42   -7 LegendNANA
16:00 -0.6 -7.0 62   21 37 24.1 98.50   -8 Blowing Snow
17:00 -1.7 -7.5 65   23 30 24.1 98.58   -9 Blowing Snow
18:00 -2.7 -8.7 64   22 29 24.1 98.64   -10 LegendNANA
19:00 -3.5 -9.1 65   23 31 24.1 98.71   -11 Blowing Snow
20:00 -4.2 -9.7 66   25 30 24.1 98.77   -12 LegendNANA
21:00 -4.5 -9.8 67   23 20 24.1 98.87   -11 LegendNANA
22:00 -5.4 -10.8 66   23 24 24.1 98.94   -13 Mainly Clear
23:00 -6.2 -12.2 63   21 21 24.1 99.00   -13 LegendNANA

Notes on Data Quality.

Legend

  • E = Estimated
  • M = Missing
  • NA = Not Available*
  • [empty] = Indicates an unobserved value
Date modified: